COSMOS 2527 (756)

Last updated on Fri Sep 04 2026 00:03:21 GMT+0000 (Coordinated Universal Time)

1 43508U 18053A 26245.98213325 .00000029 00000+0 00000+0 0 9998 2 43508 65.6245 71.3146 0006884 214.3575 145.6493 2.13102138 63939
UTC large
Height (km)
Speed (km/s)
/
Latitude / Longitude
Inclination (degrees)
Orbital Period (minutes)
Azimuth
Elevation
Range (km)
Doppler Factor

Next 0 passes for location: London (51.5072 / 0.1276)

No passes found over London.
COSMOS 2527 (756)